Location: Ponte Samoggia
(44.5667°N, 11.1333°E)
Time: 17:30:47
(UTC+00:00)

Cosmos 1025 Rocket - Pass Details

Date: 26 May 2022
Orbit: 594 x 617 km, 82.5° (Epoch: 06 July)

Event Time Altitude Azimuth Distance (km) Brightness Sun altitude
Exits shadow 00:47:09 55° 172° (S) 732 3.1 -20.9°
Maximum altitude 00:48:03 80° 98° (E) 620 3.0 -20.8°
Drops below altitude 10° 00:52:23 10° 11° (N) 1,955 6.7 -20.5°
Sets 00:54:35 0° 10° (N) 2,859 7.9 -20.3°
